FW7134 Weather Reports


time (UTC)temp
F
wind
direction
speed
knots
gust
knots
rain 1hr
in
rain 24hr
in
rain mn
in
humidity
%
barometer
mb
20260507201528 55 193 2.6 7.0 0.01 0.84 0.84 100 1000.7
20260507200027 54 200 4.3 7.0 0.03 0.84 0.84 100 1001.1
20260507194535 52 161 2.6 7.0 0.08 0.84 0.84 100 1000.8
20260507193028 51 161 1.7 8.7 0.11 0.83 0.83 100 1000.4
20260507191525 51 153 4.3 11.3 0.14 0.83 0.83 100 1000.2
20260507190036 54 143 5.2 9.6 0.15 0.81 0.81 100 1001.2
20260507184526 55 186 4.3 10.4 0.17 0.76 0.76 100 1001.8
20260507183018 55 183 6.1 8.7 0.21 0.72 0.72 100 1002.6
20260507181515 56 183 4.3 8.7 0.28 0.68 0.68 100 1002.5
20260507180018 56 178 5.2 8.7 0.37 0.66 0.66 100 1002.9
20260507174514 56 182 5.2 9.6 0.42 0.59 0.59 100 1002.9
20260507173033 56 196 7.8 11.3 0.48 0.50 0.50 100 1003.2
20260507171511 56 205 9.6 15.6 0.37 0.38 0.38 100 1003.8
20260507170018 56 210 8.7 18.2 0.28 0.28 0.28 100 1003.4
20260507164520 57 202 11.3 19.1 0.16 0.16 0.16 100 1003.6
20260507163009 57 216 12.2 20.9 0.02 0.02 0.02 100 1003.3
20260507161508 57 192 12.2 23.5 0.01 0.01 0.01 100 1003.1
20260507160006 58 184 13.0 22.6 0.00 0.00 0.00 100 1003.3
20260507154505 59 159 11.3 25.2 0.00 0.00 0.00 100 1003.8
20260507153003 59 149 11.3 26.9 0.00 0.00 0.00 100 1004.2
20260507151601 59 174 8.7 21.7 0.00 0.00 0.00 100 1004.6
20260507150101 59 193 8.7 24.3 0.00 0.00 0.00 100 1004.5
20260507150001 59 190 9.6 24.3 0.00 0.00 0.00 100 1004.6
20260507144601 58 180 10.4 20.9 0.00 0.00 0.00 100 1005.1
20260507143114 57 165 13.0 23.5 0.00 0.00 0.00 100 1005.7
20260507141601 57 167 10.4 20.0 0.00 0.00 0.00 100 1005.8
20260507140054 59 172 14.8 29.5 0.00 0.00 0.00 100 1005.6
20260507134553 59 200 16.5 38.2 0.00 0.00 0.00 100 1005.9
20260507133053 60 161 12.2 30.4 0.00 0.00 0.00 100 1006.2
20260507131555 60 146 9.6 25.2 0.00 0.00 0.00 100 1006.2
20260507130053 59 180 14.8 23.5 0.00 0.00 0.00 100 1006.3
20260507124556 59 171 13.0 23.5 0.00 0.00 0.00 100 1006.5
20260507123044 59 163 10.4 29.5 0.00 0.00 0.00 100 1006.7
20260507121543 59 225 13.9 28.7 0.00 0.00 0.00 100 1006.7
20260507120040 59 178 17.4 29.5 0.00 0.00 0.00 100 1006.6
20260507114555 59 202 13.0 24.3 0.00 0.00 0.00 100 1006.5
20260507113058 59 190 13.9 26.1 0.00 0.00 0.00 100 1006.4
20260507111537 57 178 13.9 26.1 0.00 0.00 0.00 100 1006.6
20260507110027 57 186 13.9 23.5 0.00 0.00 0.00 100 1007.0
20260507104529 56 163 11.3 21.7 0.00 0.00 0.00 100 1006.9
20260507103022 56 182 9.6 24.3 0.00 0.00 0.00 100 1007.2
20260507101519 56 188 12.2 20.0 0.00 0.00 0.00 100 1007.3
20260507100014 55 192 13.9 24.3 0.00 0.00 0.00 100 1007.5
20260507094511 55 178 9.6 18.2 0.00 0.00 0.00 100 1007.8
20260507093009 55 182 7.0 21.7 0.00 0.00 0.00 100 1008.1
20260507091508 52 171 6.1 10.4 0.00 0.00 0.00 100 1008.5
20260507090007 49 162 2.6 9.6 0.00 0.00 0.00 100 1008.8
20260507084507 52 157 4.3 10.4 0.00 0.00 0.00 100 1008.5
20260507083003 54 182 7.0 15.6 0.00 0.00 0.00 100 1009.0
20260507081605 53 169 7.8 13.9 0.00 0.00 0.00 100 1009.7
20260507080059 53 175 4.3 8.7 0.00 0.00 0.00 100 1009.7
20260507074600 53 186 7.0 9.6 0.00 0.00 0.00 100 1010.0
20260507073101 52 188 5.2 8.7 0.00 0.00 0.00 100 1010.2
20260507071555 52 166 7.0 11.3 0.00 0.00 0.00 100 1010.0
20260507070057 52 173 7.0 18.2 0.00 0.00 0.00 100 1010.0
20260507064553 52 212 9.6 15.6 0.00 0.00 0.00 100 1010.9
20260507063051 53 193 9.6 15.6 0.00 0.00 0.00 100 1011.3
20260507061648 53 199 11.3 19.1 0.00 0.00 0.00 100 1011.5
20260507060045 52 192 11.3 19.1 0.00 0.00 0.00 100 1011.3
20260507054544 52 203 8.7 13.9 0.00 0.00 0.00 100 1011.4
20260507053042 51 197 7.8 12.2 0.00 0.00 0.00 100 1011.5
20260507051540 51 190 7.8 11.3 0.00 0.00 0.00 100 1011.9
20260507050041 52 182 6.1 10.4 0.00 0.00 0.00 100 1012.3
20260507044536 51 175 7.0 10.4 0.00 0.00 0.00 100 1012.7
20260507043035 51 163 3.5 8.7 0.00 0.00 0.00 100 1013.1
20260507041529 50 171 3.5 6.1 0.00 0.00 0.00 100 1013.6
20260507040027 49 150 0.9 4.3 0.00 0.00 0.00 100 1013.8
20260507034531 50 143 4.3 7.8 0.00 0.00 0.00 100 1014.2
20260507033021 50 150 0.9 4.3 0.00 0.00 0.00 100 1014.6
20260507031519 49 150 0.0 0.0 0.00 0.00 0.00 100 1014.9
20260507030015 50 150 0.0 0.9 0.00 0.00 0.00 100 1015.0
20260507024515 50 150 0.0 2.6 0.00 0.00 0.00 100 1015.3
20260507023011 50 141 0.0 2.6 0.00 0.00 0.00 100 1015.3
20260507021510 50 141 0.9 2.6 0.00 0.00 0.00 100 1015.7
20260507020007 50 141 0.0 1.7 0.00 0.00 0.00 100 1015.7
20260507014506 51 141 0.0 7.0 0.00 0.00 0.00 100 1015.8
20260507013005 51 156 2.6 6.1 0.00 0.00 0.00 100 1015.8
20260507011501 52 130 2.6 8.7 0.00 0.00 0.00 100 1016.2
20260507010058 53 90 4.3 7.8 0.00 0.00 0.00 100 1016.1
20260507004555 54 116 1.7 7.8 0.00 0.00 0.00 100 1015.8
20260507003106 58 167 4.3 12.2 0.00 0.00 0.00 100 1015.8
20260507001612 59 246 6.1 12.2 0.00 0.00 0.00 100 1015.6
20260507000054 59 211 5.2 12.2 0.00 0.00 0.00 100 1015.6
20260506234554 60 195 3.5 17.4 0.00 0.00 0.00 100 1015.3
20260506233051 60 196 11.3 19.1 0.00 0.00 0.00 100 1015.2
20260506231559 61 209 11.3 15.6 0.00 0.00 0.00 100 1014.9
20260506230056 62 230 13.0 33.0 0.00 0.00 0.00 100 1014.6
20260506224550 62 192 19.1 33.0 0.00 0.00 0.00 100 1014.6
20260506223049 63 236 13.0 27.8 0.00 0.00 0.00 100 1014.5
20260506221603 63 217 14.8 23.5 0.00 0.00 0.00 100 1014.5
20260506220048 64 192 14.8 22.6 0.00 0.00 0.00 100 1014.3
20260506214551 64 212 18.2 27.8 0.00 0.00 0.00 100 1014.3
20260506213047 65 213 13.0 20.0 0.00 0.00 0.00 100 1014.5
20260506211546 66 203 13.0 25.2 0.00 0.00 0.00 89 1014.8
20260506210054 66 207 19.1 30.4 0.00 0.00 0.00 84 1014.6
20260506204547 66 192 11.3 21.7 0.00 0.00 0.00 100 1014.5
20260506203045 67 198 13.0 25.2 0.00 0.00 0.00 100 1014.4